Location: Novo Ouro Preto
(19.8840°S, 43.9844°W)
Time: 09:49:21
(UTC+00:00)

Okean 2 - Pass Details

Date: 18 September 2020
Orbit: 559 x 577 km, 82.5° (Epoch: 22 October)

Event Time Altitude Azimuth Distance (km) Brightness Sun altitude
Rises 21:58:29 0° 10° (N) 2,754 6.7 -16.6°
Reaches altitude 10° 22:00:45 10° 18° (NNE) 1,862 5.8 -17.2°
Enters shadow 22:04:13 39° 73° (ENE) 862 3.8 -18.0°
Exits shadow 22:06:01 29° 132° (SE) 1,046 4.4 -18.4°
Drops below altitude 10° 22:08:28 10° 157° (SSE) 1,873 5.9 -19.0°
Sets 22:10:44 0° 164° (SSE) 2,774 6.8 -19.5°
